Location: Caser�o La Pineda
(41.2677°N, 1.9887°E)
Time: 12:16:20
(UTC+00:00)

Daily predictions for brighter satellites

Satellite Brightness Start Highest point End
(mag) Time Altitude Azimuth Time Altitude Azimuth Time Altitude Azimuth
Resurs 01 Rocket 3.0 19:28:23 10° ESE 19:31:46 22° ENE 19:35:10 10° NNE
BREEZE-M DEB 4.2 19:28:44 10° WNW 19:32:09 61° SSW 19:43:55 10° SE
Cosmos 972 Rocket 4.4 19:30:01 10° N 19:34:47 43° ENE 19:39:25 10° SE
Cosmos 1441 Rocket 4.4 19:33:36 10° SE 19:36:35 22° E 19:39:35 10° NE
Meteor 1-26 Rocket 4.4 19:33:42 10° NNW 19:39:15 77° W 19:44:40 10° S
Cosmos 1900 4.3 19:38:07 10° SSW 19:43:01 78° ESE 19:48:02 10° NNE
MONITOR-E 3.6 19:44:17 10° SSE 19:46:37 53° ENE 19:48:57 10° N
USA 267 3.3 19:43:53 10° NE 19:50:24 65° SE 19:56:53 10° SW
Cosmos 1821 Rocket 4.4 19:44:45 10° SSE 19:50:24 41° E 19:56:09 10° NNE
COSMOS 2406 3.3 19:46:28 10° S 19:52:06 59° ESE 19:57:44 10° NNE
Shenzhou-11 Module 1.9 19:51:09 10° W 19:53:29 54° N 19:55:30 12° ENE
Cosmos 1743 Rocket 3.7 19:49:04 10° S 19:53:30 81° W 19:57:59 10° N
Cosmos 2366 rocket 4.3 19:47:59 10° SSW 19:54:13 75° W 20:00:27 10° N
CZ-2C R/B 3.7 19:53:37 10° NNE 19:58:11 60° E 20:02:39 10° S
Intercosmos 25 4.1 19:55:33 10° N 19:59:21 32° ENE 20:01:25 17° SE
Lacrosse 5 4.3 19:57:02 10° NNW 19:59:42 14° N 20:02:21 10° NE
Cosmos 1862 3.3 19:57:46 10° S 20:01:46 64° E 20:05:47 10° NNE
Sich 1 3.5 19:58:33 10° SSE 20:02:42 41° E 20:06:53 10° NNE
SJ-6B 3.6 20:00:15 10° S 20:04:14 53° W 20:08:12 10° NNW
IRIDIUM 106 4.3 20:01:26 10° S 20:06:35 65° E 20:11:46 10° N
Cosmos 2082 Rocket 2.9 20:02:26 10° SSE 20:07:22 31° ESE 20:12:18 10° NE
Cosmos 1818 4.2 20:03:26 10° NNW 20:08:38 43° NE 20:12:24 18° ESE
Meteor 2-6 Rocket 4.2 20:03:13 10° N 20:08:46 82° E 20:14:25 10° SSE
Cosmos 1500 Rocket 4.5 20:08:45 10° SSW 20:12:56 50° W 20:17:09 10° N
Spot 2 Rocket 4.5 20:11:25 18° ESE 20:14:24 31° ENE 20:18:51 10° N
Ariane Rocket 4.3 20:11:47 10° SSW 20:16:29 38° W 20:21:12 10° NNW
Resurs 1-3 3.7 20:13:34 10° S 20:17:57 80° WSW 20:22:22 10° NNW
USA 186 4.3 20:17:16 10° WSW 20:18:02 11° W 20:18:48 10° WNW
BREEZE-M DEB (TANK) 4.5 20:14:09 10° WNW 20:19:07 20° WSW 20:21:38 10° SSW
Cosmos 2239 Rocket 4.5 20:13:38 10° S 20:19:39 61° E 20:25:41 10° NNE
Cosmos 1190 Rocket 4.2 20:15:09 10° S 20:20:10 48° ESE 20:25:15 10° NNE
Meteor 1-4 Rocket 3.8 20:19:04 10° NNE 20:21:53 22° ENE 20:22:27 21° E
Terra 3.9 20:21:08 11° E 20:22:43 12° ENE 20:24:37 10° NE
Cosmos 407 Rocket 3.5 20:17:49 10° S 20:23:04 64° ESE 20:28:19 10° NNE
USA 234 4.1 20:18:46 12° E 20:24:17 42° NNE 20:30:20 10° NW
Cosmos 1666 Rocket 3.8 20:21:27 18° SSE 20:24:17 45° E 20:28:26 10° NNE
CZ-2C R/B 3.7 20:20:56 10° N 20:25:53 47° WNW 20:30:50 10° SW
SL-8 R/B 3.7 20:21:10 10° WNW 20:26:02 89° SSW 20:28:49 25° ESE
MetOp-B 4.3 20:25:45 21° SE 20:29:14 58° ENE 20:34:30 10° N
Meteor 1-27 Rocket 3.9 20:26:59 10° N 20:32:53 67° E 20:36:53 21° SSE
Meteor 1-10 Rocket 4.4 20:27:43 10° NNW 20:33:23 76° W 20:38:47 12° S
USA 238 DEB 4.1 20:29:51 10° S 20:35:47 37° ESE 20:41:54 10° NE
USA 238 4.1 20:29:59 10° S 20:35:54 37° ESE 20:42:00 10° NE
Cosmos 1805 Rocket 4.1 20:31:39 10° SSW 20:36:01 60° W 20:40:25 10° N
SPOT 5 4.1 20:35:54 19° E 20:36:49 20° ENE 20:39:58 10° NNE
BREEZE-M DEB (TANK) 2.5 20:33:47 10° WNW 20:38:12 39° SW 20:39:00 31° S
SPOT 1/Viking Rocket 4.0 20:39:53 28° SE 20:42:10 46° ENE 20:47:08 10° N
OE (NEXTSAT) 4.3 20:41:12 10° WNW 20:44:42 82° NNE 20:45:31 50° ESE
Cosmos 1980 Rocket 2.9 20:39:23 10° N 20:44:45 40° ENE 20:47:05 28° ESE
SL-4 R/B 2.0 20:42:16 10° WSW 20:46:16 71° NW 20:49:59 10° NE
Cosmos 405 Rocket 4.5 20:49:22 18° ENE 20:49:22 18° ENE 20:50:58 10° NE
BREEZE-M DEB (TANK) 4.1 20:45:45 10° WNW 20:48:16 30° N 20:53:41 10° ENE
Cosmos 1140 Rocket 3.4 20:43:30 10° SSW 20:48:43 83° ESE 20:54:00 10° NNE
Cosmos 972 4.5 20:44:56 10° NNW 20:50:04 75° WSW 20:52:43 27° S
ATLAS 5 CENTAUR R/B 2.9 20:47:25 10° NW 20:53:14 57° WSW 20:57:18 24° S
Cosmos 1023 Rocket 4.5 20:47:58 10° SSW 20:53:15 87° WNW 20:58:34 10° NNE
USA 32 4.2 20:53:02 34° SSE 20:55:00 54° E 21:00:05 10° NNE
Cosmos 389 Rocket 4.1 20:53:10 10° NNW 20:56:14 30° W 20:58:13 17° SW
Cosmos 1633 Rocket 3.0 20:55:05 26° S 20:57:32 90° E 21:01:59 10° N
Cosmos 1833 Rocket 3.2 20:52:23 10° SW 20:57:54 59° WNW 21:03:29 10° NNE
Cosmos 1812 4.0 20:55:48 10° NNW 20:59:21 37° W 21:01:40 18° SSW
Cosmos 1697 Rocket 2.6 20:54:56 10° NNW 21:00:34 83° WSW 21:03:04 35° SSE
Cosmos 1867 3.4 20:58:54 10° SSW 21:04:18 78° ESE 21:09:47 10° NE
CENTAUR R/B 3.1 21:04:46 32° ESE 21:04:46 32° ESE 21:10:09 10° NE
Resurs 01 Rocket 3.0 21:05:06 16° SSW 21:08:02 34° W 21:12:05 10° NNW
Landsat 7 3.8 21:08:59 40° S 21:10:41 78° WSW 21:15:28 10° NNW
Cosmos 1707 Rocket 4.3 21:06:47 10° NNW 21:10:58 49° W 21:12:53 28° SSW
FALCON 9 DEB 3.9 21:08:32 10° WSW 21:11:58 54° NW 21:15:22 10° NE
deb Kosmos-1763 4.4 21:14:16 43° SW 21:15:13 62° WNW 21:18:50 10° NNE
Cosmos 676 Rocket 4.0 21:14:03 22° SSW 21:17:37 87° WNW 21:22:59 10° NNE
IGS 5A 3.8 21:17:35 45° SSW 21:18:32 58° W 21:22:38 10° NNW
Meteor 1-25 Rocket 4.1 21:17:53 41° S 21:19:53 77° E 21:25:30 10° NNE
Cosmos 1470 Rocket 3.4 21:19:31 62° S 21:20:14 88° ESE 21:24:41 10° N
Cosmos 1934 Rocket 4.4 21:16:23 13° SSW 21:22:08 64° W 21:28:28 10° N
Cosmos 192 4.2 21:17:23 10° NNW 21:22:17 70° ENE 21:22:57 61° ESE
Aureole 1 Rocket 4.4 21:16:47 10° SSW 21:23:16 77° WNW 21:31:24 10° NNE
Cosmos 2360 4.4 21:22:08 10° NNW 21:27:50 66° WSW 21:29:33 44° S
GP-B 3.7 21:25:01 10° N 21:29:21 54° W 21:30:41 39° SW
NOSS 3-2 (A) 3.2 21:24:44 10° SSW 21:30:19 88° SE 21:36:42 10° NE
USA 267 4.4 21:27:06 10° NE 21:33:12 43° NNW 21:39:18 10° W
Cosmos 921 Rocket 3.1 21:31:02 10° NNW 21:34:50 63° NNE 21:34:50 63° NNE
NOSS 3-2 (C) 3.2 21:35:51 59° SE 21:36:15 60° ESE 21:42:26 10° NE
ERS-1 Rocket 2.9 21:36:09 65° S 21:36:53 84° WSW 21:41:56 10° NNW
Cosmos 1862 Rocket 4.0 21:33:12 10° NNW 21:37:34 54° W 21:38:10 50° SW
SAR-Lupe-2 4.4 21:39:06 10° N 21:41:55 48° NNW 21:41:55 48° NNW
SL-16 R/B 3.0 21:38:22 10° N 21:43:36 36° ENE 21:44:17 35° ENE
Lacrosse 5 3.2 21:39:40 10° NNW 21:44:09 30° NNE 21:45:31 26° ENE
Cosmos 468 Rocket 4.2 21:40:21 10° NNW 21:45:35 56° ENE 21:45:45 55° ENE
Cosmos 1741 Rocket 4.1 21:48:23 59° ENE 21:48:23 59° ENE 21:53:03 10° NNE
Cosmos 2082 Rocket 3.5 21:46:01 10° SW 21:51:18 38° WNW 21:56:35 10° N
CARTOSAT-1 4.3 21:57:12 46° W 21:57:12 46° W 22:01:14 10° NNW
Cosmos 2278 4.3 21:52:17 10° NW 21:57:44 47° WSW 21:58:39 43° SW
Terra 1.9 22:00:02 75° WNW 22:00:02 75° WNW 22:04:34 10° NNW
Cosmos 1933 Rocket 4.3 22:01:23 46° W 22:01:32 47° W 22:05:49 10° N
Cosmos 2100 Rocket 3.8 22:05:35 72° ESE 22:05:53 74° E 22:12:01 10° N
Cosmos 2322 Rocket 2.8 22:00:35 10° NNW 22:06:02 44° ENE 22:06:13 44° ENE
USA 234 3.2 22:06:06 61° S 22:07:03 69° SW 22:13:34 10° NW
Okean 1 4.5 22:04:05 10° NNW 22:07:06 42° NW 22:07:06 42° NW
Cosmos 1869 Rocket 4.5 22:13:01 44° NNE 22:13:01 44° NNE 22:16:06 10° N
Cosmos 1437 Rocket 4.3 22:08:34 10° NNW 22:10:50 34° NNW 22:10:50 34° NNW
SPOT 5 3.8 22:15:08 35° W 22:15:08 35° W 22:18:41 10° NNW
ATLAS 3B R/B 3.4 22:21:13 35° ENE 22:21:13 35° ENE 22:25:29 10° NE
Cosmos 2360 Rocket 3.3 22:15:06 10° N 22:20:08 32° ENE 22:20:19 32° ENE
Iridium 4 Rocket 4.1 22:21:45 42° N 22:21:45 42° N 22:24:35 10° N
Cosmos 2173 Rocket 3.8 22:21:11 83° S 22:21:26 90° W 22:27:37 10° N
SL-4 R/B 4.3 22:23:25 10° WNW 22:26:19 20° NNW 22:27:13 19° N
Cosmos 1725 Rocket 4.3 22:27:19 53° ENE 22:27:19 53° ENE 22:32:56 10° NNE
Cosmos 1980 Rocket 3.5 22:23:45 10° NW 22:28:32 29° WSW 22:28:51 29° WSW
Cosmos 1763 Rocket 3.9 22:26:31 10° NNW 22:31:09 60° WNW 22:31:09 60° WNW
Cosmos 2016 Rocket 3.9 22:39:51 83° NE 22:39:51 83° NE 22:46:02 10° N
Cosmos 2333 Rocket 4.0 22:36:08 10° N 22:40:24 21° NE 22:41:19 20° ENE
Meteor 1-5 Rocket 4.4 22:40:38 74° WNW 22:40:38 74° WNW 22:46:31 10° N
Cosmos 2061 Rocket 3.9 22:41:23 81° NNE 22:41:23 81° NNE 22:47:17 10° N
Cosmos 1459 Rocket 4.2 22:42:35 60° WSW 22:43:06 63° W 22:49:25 10° N
Meteor 1-13 Rocket 4.4 22:38:41 10° N 22:43:23 65° N 22:43:23 65° N
MOS 1-B Rocket 3.9 22:41:29 10° N 22:46:44 73° NNW 22:46:44 73° NNW
Cosmos 1864 Rocket 4.5 22:53:22 77° N 22:53:22 77° N 22:59:08 10° N
CENTAUR R/B 3.3 22:51:50 28° WSW 22:54:44 47° NW 23:01:30 10° NNE
Thor Agena Rocket 4.2 22:53:16 10° NNE 22:57:00 50° N 22:57:00 50° N
Cosmos 1802 Rocket 4.3 22:58:41 58° W 22:59:00 58° W 23:05:19 10° N
Cosmos 44 4.4 22:58:11 10° NNW 23:01:33 44° NNW 23:01:33 44° NNW
Cosmos 2233 Rocket 4.1 23:14:31 69° NNE 23:14:31 69° NNE 23:20:05 10° N
Lacrosse 5 3.6 23:22:24 10° NW 23:24:41 26° WNW 23:24:41 26° WNW
SL-16 R/B 3.6 23:22:36 10° NW 23:26:08 29° WNW 23:26:08 29° WNW
Cosmos 2322 4.4 23:25:00 10° NNW 23:29:31 50° NNE 23:29:31 50° NNE
Cosmos 2219 Rocket 3.0 23:33:37 10° NNW 23:38:19 45° NE 23:38:19 45° NE
Cosmos 2322 Rocket 4.0 23:45:08 10° NW 23:48:01 22° WNW 23:48:01 22° WNW
